Regional Weather Roundup
Issued by NWS

Home | Current Version | Previous Version | Graphics & Text | Print | Product List | Glossary On
Versions: 1 2 3 4 5 6 7 8 9 10 11 12 13 14 15 16 17 18 19 20 21 22 23 24 25 26 27 28 29 30 31 32 33 34 35 36 37 38 39 40 41 42 43 44 45 46 47 48 49 50
000
ASUS43 KMPX 180901
RWRMN
WEATHER ROUNDUP FOR MINNESOTA
NATIONAL WEATHER SERVICE TWIN CITIES/CHANHASSEN MN
300 AM CST MON DEC 18 2017


NOTE: "FAIR" INDICATES FEW OR NO CLOUDS BELOW 12,000 FEET WITH NO
SIGNIFICANT WEATHER AND/OR OBSTRUCTIONS TO VISIBILITY. N/A MEANS
CURRENT SKY AND/OR WEATHER CONDITIONS ARE NOT AVAILABLE.

MNZ060>063-068>070-181000-
   Twin Cities Metro

CITY           SKY/WX    TMP DP  RH WIND       PRES   REMARKS
TWIN CITIES    CLOUDY    26  25  96 SE5       29.88F FOG     WCI  20
ST PAUL        CLOUDY    26  24  92 S5        29.90F FOG     WCI  20
CRYSTAL        CLOUDY    26  22  84 SE6       29.86F FOG     WCI  19
BLAINE         MOCLDY    28  27  93 S6        29.86F FOG     WCI  22
LAKEVILLE        N/A     25  25 100 CALM      29.88F FOG
EDEN PRAIRIE   CLOUDY    26  24  92 S6        29.87F FOG     WCI  19
SOUTH ST PAUL  MOCLDY    27  26  96 CALM      29.89F FOG
LAKE ELMO      CLOUDY    28  27  93 S3        29.89F FOG
$$
MNZ001>005-007-008-013>017-022>024-027-028-181000-
   Northwest Minnesota

CITY           SKY/WX    TMP DP  RH WIND       PRES   REMARKS
BEMIDJI        CLOUDY    28  27  96 S7        29.70F FOG     WCI  20
HALLOCK        CLOUDY    27  25  93 S16       29.58F WCI  14
ROSEAU         CLOUDY    30  27  86 S17       29.59F WCI  18
WARROAD        CLOUDY    28  25  86 S10       29.60F WCI  19
CROOKSTON      CLOUDY    28  28 100 S14       29.68S WCI  17
FOSSTON        CLOUDY    28  27  93 S16       29.68F WCI  17
DETROIT LAKES  PTCLDY    28  28 100 SE7       29.73F FOG     WCI  21
MOORHEAD       CLOUDY    30  28  93 S13       29.71F WCI  20
PARK RAPIDS    CLOUDY    26  24  92 S8        29.72F FOG     WCI  18
MAHNOMEN       CLOUDY    30  29  94 S13G20    29.69F WCI  20
$$
MNZ006-009>011-018-025>026-181000-
   North Central Minnesota

CITY           SKY/WX    TMP DP  RH WIND       PRES   REMARKS
BAUDETTE       CLOUDY    27  24  89 S14       29.62F WCI  16
FLAG ISLAND    CLOUDY    25  25 100 S10       29.57F WCI  15
INTL FALLS     CLOUDY    26  22  84 VRB7      29.68F FOG     WCI  18
WASKISH        CLOUDY    28  27  93 S8G16     29.68F WCI  20
BIG FORK       CLOUDY    27  27 100 S7        29.72F WCI  19
LONGVILLE      CLOUDY    27  25  93 S7        29.76F FOG     WCI  19
GRAND RAPIDS   CLOUDY    25  22  88 S9        29.78F WCI  15
CRANE LAKE     CLOUDY    23  21  93 S3        29.74F
ORR            CLOUDY    25  21  86 S6        29.70F FOG     WCI  18
COOK           CLOUDY    25  25 100 S6        29.74F WCI  18
WALKER         CLOUDY    27  26  94 S7        29.73F WCI  20
$$
MNZ012-019>021-037-181000-
   Northeast Minnesota

CITY           SKY/WX    TMP DP  RH WIND       PRES   REMARKS
DULUTH         CLOUDY    24  23  96 S10       29.78F FOG     WCI  14
ELY            CLOUDY    23  23 100 SW6       29.75F WCI  16
HIBBING        CLOUDY    24  23  96 S3        29.76F
EVELETH        CLOUDY    24  22  90 S6        29.77F FOG     WCI  17
DULUTH HARBOR  CLOUDY    27  23  86 S8        29.85F WCI  18
TWO HARBORS    CLOUDY    28  23  80 SW6       29.79F WCI  22
SILVER BAY     CLOUDY    27  25  93 CALM      29.78F
GRAND MARAIS     N/A     27  24  89 W7        29.81F WCI  19
G MARAIS ARPRT FOG       18  12  79 CALM      29.74F VSB 1/2
$$
MNZ029>031-032-039>041-046>048-054>057-064-181000-
   West Central Minnesota

CITY           SKY/WX    TMP DP  RH WIND       PRES   REMARKS
FERGUS FALLS   CLOUDY    30  30 100 S9        29.77F WCI  22
WHEATON        CLOUDY    34  28  80 S9        29.78S WCI  26
MORRIS         CLOUDY    30  28  93 S10       29.77F WCI  21
ALEXANDRIA     CLOUDY    29  27  92 S12       29.78F WCI  19
ELBOW LAKE     CLOUDY    29  28  96 S10       29.77S WCI  20
WADENA         CLOUDY    27  27 100 S6        29.75F FOG     WCI  20
GLENWOOD       PTCLDY    28  27  93 S7        29.79F FOG     WCI  21
APPLETON       CLOUDY    34  28  80 S7        29.81F WCI  28
BENSON         CLOUDY    30  27  86 S7        29.82F WCI  23
ORTONVILLE     CLOUDY    34  28  80 S7        29.78F WCI  28
MADISON        PTCLDY    36  30  80 S7        29.81F
WILLMAR        FAIR      30  27  86 CALM      29.83F
$$
MNZ033>034-036-042>043-049>051-058-059-181000-
   Central Minnesota

CITY           SKY/WX    TMP DP  RH WIND       PRES   REMARKS
ST CLOUD       CLOUDY    25  23  92 SE6       29.83F FOG     WCI  18
SAUK CENTRE    CLOUDY    28  25  91 S9        29.80F WCI  19
PAYNESVILLE    CLOUDY    28  26  92 S3        29.83F
AITKIN         CLOUDY    23  19  86 S6        29.78F WCI  16
PINE RIVER     CLOUDY    23  21  93 S5        29.80F FOG     WCI  17
BRAINERD       CLOUDY    26  21  81 S7        29.79F HAZE    WCI  18
STAPLES        CLOUDY    25  25 100 S7        29.76F FOG     WCI  17
LONG PRAIRIE   FAIR      27  25  93 SE7       29.79F FOG     WCI  19
LITTLE FALLS   CLOUDY    27  19  74 S5        29.81F WCI  21
LITCHFIELD     CLOUDY    28  27  93 CALM      29.83F
BUFFALO        CLOUDY    26  23  91 S3        29.86F FOG
MAPLE LAKE     CLOUDY    27  26  94 S5        29.85F FOG     WCI  22
HUTCHINSON     CLOUDY    28  26  93 CALM      29.85F
$$
MNZ037-044-045-052-053-181000-
   East Central Minnesota

CITY           SKY/WX    TMP DP  RH WIND       PRES   REMARKS
PRINCETON      CLOUDY    27  23  86 S5        29.84F FOG     WCI  21
MORA           CLOUDY    23  21  93 CALM      29.86F FOG
CAMBRIDGE      CLOUDY    27  23  86 S5        29.85F FOG     WCI  21
RUSH CITY      CLOUDY    24  23  95 S3        29.86F FOG
MOOSE LAKE     CLOUDY    23  21  93 CALM      29.81F
HINCKLEY       PTSUNNY   23  23 100 S5        29.84F FOG     WCI  17
CLOQUET        CLOUDY    23  21  93 S6        29.79F WCI  16
MCGREGOR       CLOUDY    27  23  86 S5        29.80F WCI  21
$$
MNZ071>073-080-081-089-090-097-098-181000-
   Southwest Minnesota

CITY           SKY/WX    TMP DP  RH WIND       PRES   REMARKS
MONTEVIDEO     CLOUDY    32  28  86 SW7       29.82S WCI  26
GRANITE FALLS  CLOUDY    32  29  88 S9        29.85F WCI  24
CANBY          CLOUDY    36  29  77 S6        29.82F
MARSHALL       CLOUDY    31  27  85 S8        29.84F WCI  23
REDWOOD FALLS  CLOUDY    30  28  92 S9        29.84F WCI  22
OLIVIA         CLOUDY    30  28  93 S5        29.83F WCI  25
PIPESTONE      CLEAR     27  25  93 SW9       29.83F WCI  17
WINDOM           N/A     28  18  64 S3        29.86S HAZE
WORTHINGTON    CLEAR     25  23  92 SW8       29.86F WCI  16
JACKSON        CLOUDY    27  25  93 SW6       29.87F FOG     WCI  20
SLAYTON        CLEAR     28  26  93 S9        29.85S WCI  19
$$
MNZ065>067-074>077-082>085-091>093-181000-
   South Central Minnesota

CITY           SKY/WX    TMP DP  RH WIND       PRES   REMARKS
MANKATO        CLOUDY    26  24  92 S6        29.89S FOG     WCI  19
NEW ULM        CLOUDY    28  25  86 S6        29.87S WCI  22
ST JAMES       CLOUDY    28  27  93 CALM      29.88S
FAIRMONT       CLOUDY    29  26  89 SW8       29.89S WCI  21
GLENCOE        CLOUDY    28  28 100 S5        29.86S WCI  23
FARIBAULT      CLOUDY    27  27 100 CALM      29.89S FOG
OWATONNA       CLOUDY    27  27 100 S3        29.88F FOG
WASECA         CLOUDY    28  27  93 S7        29.89F FOG     WCI  21
ALBERT LEA     CLOUDY    27  27 100 SW3       29.90R FOG
$$
MNZ078>079-086>088-094>096-181000-
   Southeast Minnesota

CITY           SKY/WX    TMP DP  RH WIND       PRES   REMARKS
ROCHESTER      FOG       28  27  96 SW9       29.89S VSB 1/2 WCI  19
RED WING       CLOUDY    28  25  86 CALM      29.89F FOG
STANTON        CLOUDY    29  27  91 S3        29.87F FOG
DODGE CENTER   CLOUDY    27  27 100 SW5       29.88S FOG     WCI  21
WINONA         CLOUDY    30  30 100 SW3       29.92F FOG
AUSTIN         CLOUDY    27  27 100 W5        29.90S FOG     WCI  21
PRESTON        FOG       27  26  96 W7        29.90S VSB 3/4 WCI  19
$$
ABBREVIATIONS USED IN REMARKS
   TC - TEMPERATURES IN CELSIUS
  WCI - WIND CHILL INDEX
   HX - HEAT INDEX
  VSB - VISIBILITY
$$



USA.gov is the U.S. government's official web portal to all federal, state and local government web resources and services.